Location: Lake of the Woods (North-East)
(49.6672°N, 94.8656°W)
Time: 16:42:27
(UTC-05:00)

ISS - All Passes

Search period start: 22 October 2014 00:00
Search period end: 01 November 2014 00:00
Orbit: 413 x 416 km, 51.6° (Epoch: 22 October)

Date Brightness Start Highest point End Pass type
(mag) Time Alt. Az. Time Alt. Az. Time Alt. Az.
22 Oct - 13:49:58 10° SSE 13:51:07 11° SE 13:52:17 10° ESE daylight
22 Oct - 15:23:57 10° SW 15:27:13 52° SSE 15:30:29 10° ENE daylight
22 Oct - 17:00:35 10° W 17:03:55 63° N 17:07:15 10° ENE daylight
22 Oct - 18:37:28 10° WNW 18:40:49 73° NNE 18:44:10 10° E daylight
22 Oct - 20:14:17 10° W 20:17:23 35° SSW 20:20:29 10° SE visible
23 Oct - 14:35:07 10° SW 14:38:12 35° SSE 14:41:18 10° E daylight
23 Oct - 16:11:26 10° W 16:14:46 73° NNW 16:18:07 10° ENE daylight
23 Oct - 17:48:20 10° WNW 17:51:40 63° N 17:55:00 10° E daylight
23 Oct - 19:25:06 10° WNW 19:28:22 52° SSW 19:31:38 10° SE visible
23 Oct - 21:03:17 10° WSW 21:04:28 11° SW 21:05:38 10° SSW visible
24 Oct - 13:46:27 10° SSW 13:49:12 24° SE 13:51:58 10° E daylight
24 Oct - 15:22:16 10° WSW 15:25:37 90° SSE 15:28:58 10° ENE daylight
24 Oct - 16:59:09 10° W 17:02:28 59° N 17:05:47 10° E daylight
24 Oct - 18:35:55 10° WNW 18:39:16 73° SSW 18:42:36 10° ESE visible
24 Oct - 20:13:13 10° W 20:15:33 18° SW 20:17:52 10° S visible
25 Oct - 12:58:06 10° S 13:00:13 16° SE 13:02:21 10° E daylight
25 Oct - 14:33:08 10° WSW 14:36:27 68° SSE 14:39:47 10° ENE daylight
25 Oct - 16:09:55 10° W 16:13:13 60° N 16:16:32 10° ENE daylight
25 Oct - 17:46:44 10° WNW 17:50:05 85° NNE 17:53:26 10° ESE daylight
25 Oct - 19:23:40 10° W 19:26:32 26° SW 19:29:23 10° SSE visible
26 Oct - 12:10:59 10° SE 12:11:15 10° SE 12:11:31 10° SE daylight
26 Oct - 13:44:04 10° SW 13:47:17 47° SSE 13:50:31 10° ENE daylight
26 Oct - 15:20:37 10° W 15:23:57 65° N 15:27:17 10° ENE daylight
26 Oct - 16:57:30 10° WNW 17:00:50 70° NNE 17:04:11 10° E daylight
26 Oct - 18:34:17 10° W 18:37:26 39° SSW 18:40:34 10° SE visible
27 Oct - 12:55:07 10° SSW 12:58:08 32° SSE 13:01:09 10° E daylight
27 Oct - 14:31:19 10° W 14:34:39 77° NNW 14:38:00 10° ENE daylight
27 Oct - 16:08:13 10° WNW 16:11:32 62° N 16:14:51 10° E daylight
27 Oct - 17:44:57 10° WNW 17:48:15 57° SSW 17:51:32 10° SE daylight
27 Oct - 19:22:48 10° WSW 19:24:23 13° SW 19:25:57 10° SSW visible
28 Oct - 12:06:23 10° SSW 12:08:59 22° SE 12:11:37 10° E daylight
28 Oct - 13:42:00 10° WSW 13:45:21 84° SSE 13:48:42 10° ENE daylight
28 Oct - 15:18:52 10° W 15:22:10 59° N 15:25:29 10° E daylight
28 Oct - 16:55:38 10° WNW 16:58:59 79° SSW 17:02:19 10° ESE daylight
28 Oct - 18:32:48 10° W 18:35:18 20° SW 18:37:47 10° S visible
29 Oct - 11:18:01 10° S 11:19:52 14° SE 11:21:44 10° ESE daylight
29 Oct - 12:52:44 10° WSW 12:56:02 62° SSE 12:59:20 10° ENE daylight
29 Oct - 14:29:28 10° W 14:32:46 61° N 14:36:05 10° ENE daylight
29 Oct - 16:06:17 10° WNW 16:09:38 81° NNE 16:12:59 10° ESE daylight
29 Oct - 17:43:10 10° W 17:46:07 29° SW 17:49:03 10° SSE daylight
30 Oct - 12:03:34 10° SW 12:06:44 42° SSE 12:09:55 10° ENE daylight
30 Oct - 13:40:01 10° W 13:43:21 68° N 13:46:41 10° ENE daylight
30 Oct - 15:16:54 10° WNW 15:20:14 67° N 15:23:33 10° E daylight
30 Oct - 16:53:39 10° WNW 16:56:51 43° SSW 17:00:01 10° SE daylight
31 Oct - 11:14:31 10° SSW 11:17:26 29° SE 11:20:22 10° E daylight
31 Oct - 12:50:34 10° WSW 12:53:54 81° NNW 12:57:15 10° ENE daylight
31 Oct - 14:27:27 10° WNW 14:30:45 60° N 14:34:04 10° E daylight
31 Oct - 16:04:11 10° WNW 16:07:30 63° SSW 16:10:47 10° ESE daylight
31 Oct - 17:41:45 10° WSW 17:43:40 15° SW 17:45:34 10° S daylight
